View from above orbital plane
|
View from above satellite
|
Ground track
|
The orbit data is extracted from the following two-line orbital elements,
1 28650U 05017B 13142.08836745 .00001445 00000-0 17936-3 0 4286
2 28650 097.5685 162.0291 0025750 010.4374 022.5859 14.83845385435217
| Epoch (UTC): | 22 May 2013 02:07:14 |
| Eccentricity: | 0.0025750 |
| inclination: | 97.5685° |
| perigee height: | 599 km |
| apogee height: | 635 km |
| right ascension of ascending node: | 162.0291° |
| argument of perigee: | 10.4374° |
| revolutions per day: | 14.83845385 |
| mean anomaly at epoch: | 22.5859° |
| orbit number at epoch: | 43521 |
The dashed part of the orbit path shows where the satellite is in the earth's shadow,
|
|